Weather History for Little Rock AFB, AR

Change the Weather History Date:

Tuesday, November 20, 2012

  Actual Average Record
Temperature  
Mean Temperature 59 °F -  
Max Temperature 74 °F 61 °F 79 °F (1989)
Min Temperature 44 °F 40 °F 22 °F (1980)
Degree Days  
Heating Degree Days 6    
Growing Degree Days 9 (Base 50)    
Moisture  
Dew Point 47 °F    
Average Humidity 69    
Maximum Humidity 92    
Minimum Humidity 46    
Precipitation  
Precipitation 0.00 in - - ()
Sea Level Pressure  
Sea Level Pressure 30.16 in    
Wind  
Wind Speed 2 mph (WNW)    
Max Wind Speed 13 mph    
Max Gust Speed -    
Visibility 10 miles    
Events      
Averages and records for this station are not official NWS values.
T = Trace of Precipitation, MM = Missing Value Source: NWS Daily Summary

Daily Weather History Graph

Daily Weather History Graph

Search for Another Location

Airport:

Trip Planner

Search our weather history database for the weather conditions in past years. The results will help you decide how hot, cold, wet, or windy it might be!

Date:

Astronomy

Nov. 20, 2012 Rise Set
Actual Time 6:48 AM CST 5:00 PM CST
Civil Twilight 6:21 AM CST 5:27 PM CST
Nautical Twilight 5:50 AM CST 5:58 PM CST
Astronomical Twilight 5:20 AM CST 6:28 PM CST
Moon 12:30 PM CST (11/20) No Moon Set
Length of Visible Light 11h 06m
Length of Day
10h 11m
First Quarter, 51% of the Moon is Illuminated
Nov 20
First Quarter
Nov 28
Full
Dec 6
Last Quarter
Dec 13
New
Dec 19
First Quarter

Hourly Weather History & Observations

Time (CST) Temp. Dew Point Humidity Pressure Visibility Wind Dir Wind Speed Gust Speed Precip Events Conditions
12:55 AM 53.2 °F 45.5 °F 75% 30.18 in 10.0 mi Calm Calm - N/A   Overcast
1:55 AM 52.0 °F 45.3 °F 78% 30.17 in 10.0 mi Calm Calm - N/A   Scattered Clouds
2:55 AM 46.6 °F 43.0 °F 87% 30.17 in 10.0 mi Calm Calm - N/A   Clear
3:55 AM 44.8 °F 42.1 °F 90% 30.18 in 10.0 mi Calm Calm - N/A   Clear
4:55 AM 45.7 °F 43.3 °F 92% 30.19 in 10.0 mi Calm Calm - N/A   Overcast
5:55 AM 48.6 °F 45.0 °F 87% 30.19 in 10.0 mi Calm Calm - N/A   Overcast
6:55 AM 49.8 °F 45.5 °F 85% 30.19 in 10.0 mi Calm Calm - N/A   Overcast
7:55 AM 51.4 °F 46.4 °F 83% 30.20 in 10.0 mi Calm Calm - N/A   Overcast
8:55 AM 56.3 °F 46.2 °F 69% 30.20 in 10.0 mi Calm Calm - N/A   Clear
9:55 AM 62.4 °F 45.1 °F 53% 30.20 in 10.0 mi West 4.6 mph - N/A   Clear
10:55 AM 67.3 °F 45.7 °F 46% 30.19 in 10.0 mi West 6.9 mph - N/A   Clear
11:55 AM 70.7 °F 48.7 °F 46% 30.16 in 10.0 mi West 9.2 mph - N/A   Clear
12:55 PM 72.0 °F 51.1 °F 48% 30.13 in 10.0 mi West 11.5 mph - N/A   Clear
1:55 PM 72.9 °F 52.5 °F 49% 30.11 in 10.0 mi West 9.2 mph - N/A   Clear
2:55 PM 74.1 °F 53.4 °F 48% 30.09 in 10.0 mi WSW 12.7 mph - N/A   Clear
3:55 PM 73.2 °F 53.1 °F 49% 30.09 in 10.0 mi West 10.4 mph - N/A   Clear
4:55 PM 69.4 °F 52.2 °F 54% 30.11 in 10.0 mi WNW 4.6 mph - N/A   Clear
5:55 PM 58.6 °F 50.5 °F 74% 30.12 in 10.0 mi Calm Calm - N/A   Clear
6:55 PM 55.2 °F 49.6 °F 81% 30.14 in 10.0 mi Calm Calm - N/A   Clear
7:55 PM 52.9 °F 48.2 °F 84% 30.15 in 10.0 mi WNW 3.5 mph - N/A   Clear
8:55 PM 50.5 °F 46.0 °F 85% 30.16 in 10.0 mi Calm Calm - N/A   Clear
9:55 PM 59.9 °F 45.5 °F 59% 30.17 in 10.0 mi NNW 3.5 mph - N/A   Clear
10:55 PM 59.0 °F 44.1 °F 58% 30.18 in 10.0 mi North 3.5 mph - N/A   Clear
11:55 PM 53.1 °F 42.8 °F 68% 30.19 in 10.0 mi NNW 3.5 mph - N/A   Clear